Regional Weather Roundup
Issued by NWS

Home | Current Version | Previous Version | Text Only | Print | Product List | Glossary Off
Versions: 1 2 3 4 5 6 7 8 9 10 11 12 13 14 15 16 17 18 19 20 21 22 23 24 25 26 27 28 29 30 31 32 33 34 35 36 37 38 39 40 41 42 43 44 45 46 47 48 49 50

279
ASUS43 KLMK 240410
RWRKY
KENTUCKY REGIONAL WEATHER ROUNDUP
NATIONAL WEATHER SERVICE LOUISVILLE KY
1200 AM EDT MON APR 24 2017

NOTE "FAIR" INDICATES FEW OR NO CLOUDS BELOW 12,000 FEET
WITH NO SIGNIFICANT WEATHER AND/OR OBSTRUCTIONS TO VISIBILITY.

KYZ001>023-026-027-061>063-070>075-240500-
WESTERN AND SOUTH CENTRAL KENTUCKY

CITY           SKY/WX    TMP DP  RH WIND       PRES   REMARKS
PADUCAH        CLEAR     50  44  80 CALM      29.94S
HENDERSON      MOCLDY    49  47  93 CALM      29.94F
OWENSBORO      PTCLDY    61  39  44 NE10      29.92F
HOPKINSVILLE   LGT RAIN  53  50  90 NE15      29.88F
BOWLING GREEN  CLOUDY    55  48  77 N7        29.88F
GLASGOW        CLOUDY    55  48  77 NE7       29.88S
$$

KYZ024-025-028>034-038-045-046-053-240500-
NORTH CENTRAL KENTUCKY

CITY           SKY/WX    TMP DP  RH WIND       PRES   REMARKS
LOUISVILLE/SDF CLOUDY    61  41  47 N5        29.95S
LOUISVILLE/LOU CLOUDY    60  40  47 CALM      29.96S
FORT KNOX      LGT RAIN  52  48  86 N8        29.92F
$$

KYZ035>037-039>044-047>052-055>060-089>105-240500-
NORTHEAST KENTUCKY

CITY           SKY/WX    TMP DP  RH WIND       PRES   REMARKS
LEXINGTON      CLOUDY    56  46  69 E12       29.93S
COVINGTON      CLOUDY    57  38  48 NE13      29.95F
FRANKFORT      CLOUDY    58  45  62 NE5       29.93S
$$

KYZ054-064>069-076>088-106>120-240500-
SOUTHEAST KENTUCKY

CITY           SKY/WX    TMP DP  RH WIND       PRES   REMARKS
JACKSON        CLOUDY    51  49  92 VRB3      29.91S
LONDON         CLOUDY    53  49  86 NE7       29.88S
SOMERSET       CLOUDY    52  52 100 N7        29.89S
MIDDLESBORO    CLOUDY    54  50  88 CALM      29.87F
MONTICELLO     LGT RAIN  53  52  96 N12G20    29.89S FOG
$$





USA.gov is the U.S. government's official web portal to all federal, state and local government web resources and services.